Details From KINW - WINSLOW LINDBERGH RGNL
To KRQE - WINDOW ROCK
Flight Number -
Tags decoded
Created
Modified
Stats Distance 90 nm / 166 km
Max Altitude 0 ft / 0 m
Waypoints 2
Social Downloads 0
Likes 0
Share VATSIM

Download

Looking for another format? Having issues loading an existing format? Contact us
Advertisement - Login to hide

Notes

Requested: KINW KRQE

Route

KINW KRQE

ID Type Via Altitude Latitude Longitude Leg Dist Tot Dist Heading (true) Name
O KINW APT - 0 ft / 0 m 35.02159˚ -110.72455˚ - 0 nm - WINSLOW LINDBERGH RGNL
O KRQE APT - 0 ft / 0 m 35.65207˚ -109.06738˚ 89 nm 89 nm 65° / 65° WINDOW ROCK

Altitude Profile

Advertisement - Login to hide

KINW

Details ICAO KINW (INW)
Name WINSLOW LINDBERGH RGNL
Region United States
Timezone America/Phoenix (UTC-7.0)
Stats Elevation 4,941 ft / 1,506 m (AMSL)
Location 35.021593° -110.724553°
Runways 3
Magnetic Variation 10.089° E

METAR

KINW 210556Z AUTO 22003KT 10SM CLR 16/M11 A2996 RMK AO2 SLP081 T01611106 10283 20161 51007

Decode

TAF

KINW 210522Z 2106/2206 20010KT P6SM SCT250 FM211700 18010G20KT P6SM SCT200 FM212000 20020G30KT P6SM BKN200 FM220300 21015KT P6SM SCT170 BKN200 FM220500 VRB06KT P6SM SCT150

Decode

Departure Runways

ID Width Length Bearing (true) Bearing (mag) Surface Threshold Offset Overrun Length
04 150 ft / 46 m 7,491 ft / 2,283 m 58.49° 48.40° Asphalt 0 ft / 0 m 0 ft / 0 m
11 150 ft / 46 m 7,092 ft / 2,162 m 119.77° 109.68° Asphalt 190 ft / 58 m 398 ft / 121 m
17 150 ft / 46 m 6,102 ft / 1,860 m 184.66° 174.57° Asphalt 0 ft / 0 m 0 ft / 0 m
22 150 ft / 46 m 7,491 ft / 2,283 m 238.50° 228.41° Asphalt 1,258 ft / 383 m 0 ft / 0 m
29 150 ft / 46 m 7,092 ft / 2,162 m 299.78° 289.69° Asphalt 373 ft / 114 m 0 ft / 0 m
35 150 ft / 46 m 6,102 ft / 1,860 m 4.66° 354.57° Asphalt 0 ft / 0 m 0 ft / 0 m

KRQE

Details ICAO KRQE
Name WINDOW ROCK
Region United States
Timezone America/Denver (UTC-6.0)
Stats Elevation 6,742 ft / 2,055 m (AMSL)
Location 35.652067° -109.067376°
Runways 1
Magnetic Variation 9.568° E

METAR

KRQE 210553Z AUTO 00000KT 10SM CLR 14/M13 A3007 RMK AO2 SLP069 T01391128 10250 20128 51011 PWINO $

Decode

TAF

Not found

Destination Runways

ID Width Length Bearing (true) Bearing (mag) Surface Threshold Offset Overrun Length
02 75 ft / 23 m 7,006 ft / 2,135 m 33.93° 24.36° Asphalt 0 ft / 0 m 0 ft / 0 m
20 75 ft / 23 m 7,006 ft / 2,135 m 213.94° 204.37° Asphalt 0 ft / 0 m 0 ft / 0 m

Popular Alternatives